Flag for Australia Weather past 2 weeks in Armidale, New South Wales, Australia

Now
56 °F

Passing clouds.


Feels Like: 54 °F
Forecast: 56 / 73 °F
Wind: 7 mph from East

Location: Armidale Airport Aws

Current Time: Dec 23, 2014 at 7:22:32 AM

Latest Report: Dec 23, 2014 at 6:00 AM


Visibility: N/A

Pressure: 29.92 "Hg

Humidity: 99%

Dew point: 55 °F

Location of ArmidaleLocation

Historic Weather in Armidale — Graph

°F

Armidale temperature yesterday

Maximum temperature yesterday: 80 °F (at 3:00 PM)
Minimum temperature yesterday: 56 °F (at 6:00 AM)
Average temperature yesterday: 67 °F

Past Weeks' High & Low Weather Summary

 TemperatureHumidityPressure
High85 °F (Dec 17, 1:00 PM)100% (Dec 10, 3:00 AM)30.02 "Hg (Dec 10, 3:00 AM)
Low49 °F (Dec 13, 6:00 AM)26% (Dec 17, 3:00 PM)29.61 "Hg (Dec 16, 6:00 PM)
Average65 °F70%29.82 "Hg
* Reported Dec 8 6:00 AM — Dec 23 6:00 AM, Armidale, Weather by CustomWeather, © 2014

Note: Actual official high and low records may vary slightly from our data, if they occured in-between our weather recording intervals... More about our weather records

Advertising

Armidale weather history for previous 24 hours

 ConditionsComfort  
Time TempWeatherWind HumidityBarometerVisibility
6:00 AM
Dec 23
56 °FPassing clouds.7 mph99%29.92 "HgN/A
4:00 AM56 °FCool.7 mph98%29.92 "HgN/A
3:00 AM57 °FPassing clouds.No wind96%29.93 "HgN/A
1:00 AM60 °FCool.14 mph94%29.96 "HgN/A
12:00 AM60 °FCool.13 mph98%29.97 "HgN/A
10:00 PM
Dec 22
62 °FCool.12 mph94%29.97 "HgN/A
9:00 PM64 °FMild.13 mph85%29.97 "HgN/A
7:00 PM73 °FMild.13 mph58%29.93 "HgN/A
6:00 PM76 °FMild.14 mph39%29.90 "HgN/A
4:00 PM79 °FPleasantly warm.14 mph37%29.91 "HgN/A
3:00 PM80 °FPassing clouds.5 mph37%29.94 "HgN/A
1:00 PM77 °FMild.7 mph39%29.99 "HgN/A
12:00 PM74 °FScattered clouds.6 mph50%30.01 "HgN/A
10:00 AM71 °FMild.9 mph62%30.02 "HgN/A
9:00 AM68 °FMild.3 mph68%30.01 "HgN/A
7:00 AM60 °FCool.6 mph97%29.98 "HgN/A
Weather by CustomWeather, © 2014

See weather overviewHow to use our weather pages